This is the latest recevied weather packets stored in our database for station/object HB9CEY-10. If no packets are shown the sender has not sent any weather packets the latest 10 day(s).
| Time | Temp. | Humidity | Pressure | Rain* | Wind** | Luminosity | Snow |
|---|---|---|---|---|---|---|---|
| 1777039087 | 17.22° C | 35% | 1020.6 hPa | - | - | - | - |
| 1777038187 | 17.22° C | 34% | 1020.7 hPa | - | - | - | - |
| 1777037287 | 17.22° C | 35% | 1020.8 hPa | - | - | - | - |
| 1777036387 | 17.22° C | 35% | 1021 hPa | - | - | - | - |
| 1777035487 | 17.22° C | 35% | 1021 hPa | - | - | - | - |
| 1777034587 | 16.67° C | 35% | 1021.2 hPa | - | - | - | - |
| 1777033687 | 16.67° C | 36% | 1021.3 hPa | - | - | - | - |
| 1777032787 | 16.67° C | 36% | 1021.4 hPa | - | - | - | - |
| 1777031887 | 16.67° C | 36% | 1021.5 hPa | - | - | - | - |
| 1777030987 | 16.67° C | 36% | 1021.7 hPa | - | - | - | - |
| 1777030087 | 16.67° C | 36% | 1021.7 hPa | - | - | - | - |
| 1777029187 | 16.67° C | 36% | 1021.6 hPa | - | - | - | - |
| 1777028287 | 16.67° C | 36% | 1021.7 hPa | - | - | - | - |
| 1777027386 | 16.67° C | 36% | 1021.9 hPa | - | - | - | - |
| 1777026486 | 16.67° C | 36% | 1021.9 hPa | - | - | - | - |
| 1777025586 | 16.11° C | 36% | 1022.1 hPa | - | - | - | - |
| 1777024686 | 15.56° C | 37% | 1022 hPa | - | - | - | - |
| 1777023786 | 15.56° C | 37% | 1022 hPa | - | - | - | - |
| 1777022886 | 15° C | 37% | 1022.2 hPa | - | - | - | - |
| 1777021986 | 14.44° C | 38% | 1022.2 hPa | - | - | - | - |
| 1777021086 | 13.89° C | 38% | 1022.3 hPa | - | - | - | - |
| 1777020186 | 13.89° C | 38% | 1022.2 hPa | - | - | - | - |
| 1777019286 | 14.44° C | 38% | 1022.2 hPa | - | - | - | - |
| 1777018386 | 14.44° C | 38% | 1022.2 hPa | - | - | - | - |
| 1777017486 | 15° C | 39% | 1022.2 hPa | - | - | - | - |
* Rain since midnight (hover to see other rain measurements)
** Current wind speed in m/s (hover to see current wind gust speed)